[[{"header":{"parameterUnit":"m.s-1","parameterCategory":1,"la1":30.2991,"la2":30.254,"lo1":-89.0895,"lo2":-89.0444,"dy":0.0017,"dx":0.0017,"nx":28,"ny":28,"refTime":"2025-01-28T09:00:00:Z","depth":0,"parameterNumber":2,"parameterNumberName":"U-component_of_WINDS"},"data":[0,0,0,0,0,0,0,0,0,0,0,0,0,0,0,0,0,0,0,0,0,0,0,0,0,0,0,0,0,0,0,0,0,0,0,0,0,0,0,0,0,0,0,0,0,0,0,0,0,0,0,0,0,0,0,0,0,0,-2.3215,-2.3215,0,-2.3259,-2.326,-2.326,-2.3218,-2.3216,-2.3215,-2.3213,-2.326,-2.3263,-2.3266,0,0,0,0,0,0,0,0,0,0,0,0,0,-2.3094,-2.3096,-2.3214,-2.3215,-2.3216,-2.3259,-2.326,-2.326,-2.3218,-2.3216,-2.3214,-2.3212,-2.3259,-2.3263,-2.3266,0,0,0,0,0,0,0,0,0,0,0,0,0,-2.3143,-2.3097,-2.3214,-2.32,-2.3199,-2.3259,-2.326,-2.3261,-2.3219,-2.3216,-2.3214,-2.3211,-2.3258,-2.3262,-2.3267,-2.3344,0,0,-2.3279,-2.3281,0,0,0,0,0,0,0,0,-2.3141,-2.3148,-2.3201,-2.3201,-2.32,-2.323,-2.3234,-2.3288,-2.3219,-2.3211,-2.3213,-2.321,-2.3252,-2.3257,-2.3271,-2.3346,-2.3348,-2.328,-2.3282,-2.3284,-2.3285,0,0,0,0,0,0,0,-2.3137,-2.3146,-2.3232,-2.3202,-2.3202,-2.3192,-2.3196,-2.3245,-2.3246,-2.3212,-2.3209,-2.3215,-2.3252,-2.3267,-2.3272,-2.3348,-2.328,-2.3284,-2.3286,-2.3288,-2.3489,-2.3491,0,0,0,0,0,0,-2.3135,-2.3143,-2.3231,-2.3234,-2.3163,-2.3196,-2.32,-2.3223,-2.3245,-2.3246,-2.3217,-2.3213,-2.3261,-2.3267,-2.3273,-2.3365,-2.3284,-2.3288,-2.3291,-2.3486,-2.3489,-2.3492,0,0,0,0,0,0,-2.3133,-2.3143,-2.3229,-2.3188,-2.3198,-2.3201,-2.3227,-2.3226,-2.3241,-2.3249,-2.3249,-2.3232,-2.3259,-2.3267,-2.3326,-2.3366,-2.329,-2.3294,-2.3483,-2.3487,-2.3491,-2.3548,0,0,0,0,0,0,-2.313,-2.3143,-2.3172,-2.3189,-2.32,-2.3281,-2.3229,-2.3228,-2.3248,-2.3243,-2.3263,-2.3264,-2.3258,-2.332,-2.3331,-2.337,-2.3297,-2.3479,-2.3485,-2.3489,-2.3543,-2.3554,-2.3563,0,0,0,0,0,-2.3125,-2.3187,-2.3173,-2.3184,-2.3236,-2.3283,-2.329,-2.3281,-2.3251,-2.3281,-2.3286,-2.3264,-2.336,-2.3327,-2.3338,-2.3379,-2.3477,-2.3483,-2.3489,-2.3538,-2.3552,-2.3563,0,0,0,0,0,0,-2.3175,-2.3188,-2.3174,-2.3242,-2.3262,-2.3276,-2.3313,-2.3296,-2.3324,-2.3318,-2.3307,-2.3312,-2.3374,-2.3383,-2.3345,-2.3455,-2.3413,-2.3422,-2.3447,-2.346,-2.347,-2.3466,-2.3301,0,0,0,0,0,-2.3194,-2.323,-2.324,-2.33,-2.331,-2.331,-2.333,-2.3322,-2.3342,-2.335,-2.3359,-2.338,-2.3415,-2.3438,-2.347,-2.3544,-2.3548,-2.3578,-2.3589,-2.3597,-2.3605,-2.3644,-2.3658,-2.3513,-2.3513,-2.3513,0,0,-2.3233,-2.3245,-2.3269,-2.331,-2.3324,-2.3363,-2.3317,-2.336,-2.3388,-2.3356,-2.3412,-2.342,-2.3442,-2.3509,-2.3539,-2.3518,-2.3646,-2.3605,-2.3612,-2.3615,-2.3652,-2.3666,-2.3678,-2.3517,-2.3516,-2.3516,0,0,-2.3324,-2.3337,-2.3387,-2.3402,-2.3424,-2.3424,-2.3436,-2.3453,-2.3457,-2.3513,-2.3489,-2.3524,-2.3584,-2.3601,-2.3617,-2.3715,-2.3696,-2.3726,-2.378,-2.3818,-2.383,-2.384,-2.3875,-2.3887,-2.3734,-2.3734,-2.3734,0,-2.337,-2.3427,-2.3416,-2.346,-2.3479,-2.3451,-2.3503,-2.3518,-2.355,-2.3564,-2.354,-2.3615,-2.3628,-2.3699,-2.3722,-2.3737,-2.3751,-2.3723,-2.3829,-2.3839,-2.3848,-2.3881,-2.3894,-2.3738,-2.3737,-2.3737,-2.3736,0,-2.3482,-2.3522,-2.356,-2.3591,-2.3614,-2.3662,-2.3659,-2.3684,-2.3674,-2.3676,-2.3733,-2.3748,-2.3783,-2.3799,-2.379,-2.3868,-2.3855,-2.3831,-2.3788,-2.3866,-2.3897,-2.3909,-2.3743,-2.3741,-2.374,-2.3739,0,0,-2.3605,-2.3629,-2.3644,-2.3657,-2.3679,-2.371,-2.3757,-2.3791,-2.3812,-2.3835,-2.3874,-2.3926,-2.3904,-2.3923,-2.3915,-2.3949,-2.4026,-2.392,-2.3921,-2.3939,-2.4113,-2.4131,-2.4146,-2.4013,-2.4015,-2.4017,-2.4111,0,-2.3697,-2.3777,-2.3769,-2.3846,-2.3882,-2.3857,-2.3898,-2.3916,-2.3919,-2.3951,-2.3955,-2.3992,-2.396,-2.3971,-2.4004,-2.4009,-2.406,-2.4003,-2.4049,-2.4051,-2.4044,-2.4162,-2.4181,-2.4268,-2.4123,-2.4125,-2.4127,0,-2.3814,-2.3841,-2.3921,-2.3938,-2.3953,-2.3989,-2.402,-2.4051,-2.4071,-2.4071,-2.4092,-2.4079,-2.4126,-2.4084,-2.4149,-2.411,-2.4129,-2.4134,-2.4138,-2.4141,-2.4093,-2.4168,-2.4296,-2.4309,-2.4145,-2.4144,-2.4143,0,-2.3895,-2.3951,-2.4006,-2.4019,-2.404,-2.4066,-2.4076,-2.4094,-2.4115,-2.4142,-2.4156,-2.4188,-2.4206,-2.4231,-2.4227,-2.4196,-2.4294,-2.4251,-2.4295,-2.4296,-2.4316,-2.4315,-2.4449,-2.433,-2.4329,-2.4329,-2.4329,0,-2.3998,-2.4048,-2.4043,-2.4077,-2.4133,-2.4123,-2.4178,-2.4185,-2.4202,-2.4237,-2.4217,-2.4251,-2.4243,-2.4277,-2.4274,-2.4329,-2.4337,-2.4338,-2.4337,-2.434,-2.434,-2.4352,-2.4345,-2.4333,-2.4332,-2.4331,-2.4331,0,-2.4098,-2.4097,-2.4155,-2.417,-2.4175,-2.4215,-2.4228,-2.4261,-2.4262,-2.4307,-2.4317,-2.4321,-2.4359,-2.4357,-2.4401,-2.4399,-2.4466,-2.4458,-2.4459,-2.4457,-2.4502,-2.4498,-2.4648,-2.4667,-2.4536,-2.4537,-2.4538,0,-2.4163,-2.4201,-2.422,-2.4242,-2.4254,-2.4289,-2.431,-2.4303,-2.4326,-2.4352,-2.4381,-2.4418,-2.4446,-2.4509,-2.4516,-2.455,-2.4542,-2.4592,-2.4547,-2.4548,-2.4542,-2.454,-2.4543,-2.4601,-2.4602,-2.4603,-2.4604,0,-2.4279,-2.4277,-2.4308,-2.4339,-2.4364,-2.4389,-2.4411,-2.443,-2.4425,-2.4451,-2.449,-2.4513,-2.4557,-2.4594,-2.4626,-2.4637,-2.462,-2.4619,-2.4631,-2.4634,-2.4633,-2.4634,-2.4483,-2.4615,-2.4614,-2.4613,-2.4613,-2.4612,-2.4364,-2.4396,-2.4414,-2.445,-2.4465,-2.4486,-2.4517,-2.4523,-2.4555,-2.459,-2.4584,-2.4628,-2.4648,-2.4689,-2.4703,-2.4737,-2.4719,-2.4737,-2.4741,-2.4746,-2.475,-2.4628,-2.4743,-2.4743,-2.4743,-2.4742,-2.4742,0,-2.4478,-2.4489,-2.4521,-2.4553,-2.4581,-2.4562,-2.4585,-2.461,-2.4648,-2.4668,-2.4697,-2.4742,-2.4777,-2.4787,-2.4821,-2.4847,-2.484,-2.4856,-2.4854,-2.4857,-2.4765,-2.4751,-2.4861,-2.4861,-2.4861,-2.4861,-2.4861,-2.4861,-2.4541,-2.4595,-2.4595,-2.4656,-2.4667,-2.4709,-2.4724,-2.4743,-2.4759,-2.481,-2.4839,-2.4845,-2.4861,-2.4896,-2.4928,-2.493,-2.4943,-2.4962,-2.4961,-2.4875,-2.4863,-2.4852,-2.4838,-2.4965,-2.4966,-2.505,-2.5051,-2.5052]},{"header":{"parameterUnit":"m.s-1","parameterCategory":1,"la1":30.2991,"la2":30.254,"lo1":-89.0895,"lo2":-89.0444,"dy":0.0017,"dx":0.0017,"nx":28,"ny":28,"refTime":"2025-01-28T09:00:00:Z","depth":0,"parameterNumber":3,"parameterNumberName":"V-component_of_WINDS"},"data":[0,0,0,0,0,0,0,0,0,0,0,0,0,0,0,0,0,0,0,0,0,0,0,0,0,0,0,0,0,0,0,0,0,0,0,0,0,0,0,0,0,0,0,0,0,0,0,0,0,0,0,0,0,0,0,0,0,0,0.4379,0.438,0,0.4396,0.4396,0.4397,0.4395,0.4395,0.4395,0.4394,0.4411,0.4411,0.4412,0,0,0,0,0,0,0,0,0,0,0,0,0,0.4346,0.4347,0.4379,0.438,0.438,0.4396,0.4396,0.4397,0.4395,0.4395,0.4395,0.4394,0.441,0.4411,0.4412,0,0,0,0,0,0,0,0,0,0,0,0,0,0.4362,0.4347,0.4379,0.4381,0.4381,0.4396,0.4396,0.4397,0.4395,0.4395,0.4394,0.4394,0.441,0.4411,0.4412,0.4426,0,0,0.4415,0.4416,0,0,0,0,0,0,0,0,0.4361,0.4363,0.4381,0.4381,0.4381,0.4393,0.4391,0.4406,0.4395,0.439,0.4394,0.4394,0.4405,0.4407,0.441,0.4427,0.4427,0.4415,0.4416,0.4416,0.4417,0,0,0,0,0,0,0,0.436,0.4362,0.4386,0.4381,0.4381,0.4381,0.4383,0.4394,0.4399,0.439,0.439,0.4392,0.4405,0.441,0.4411,0.4428,0.4415,0.4416,0.4417,0.4417,0.4458,0.4458,0,0,0,0,0,0,0.4358,0.4361,0.4385,0.4386,0.437,0.4382,0.4384,0.439,0.4399,0.44,0.4393,0.4392,0.4408,0.441,0.4411,0.4429,0.4416,0.4417,0.4418,0.4457,0.4458,0.4458,0,0,0,0,0,0,0.4358,0.436,0.4385,0.4374,0.4377,0.4383,0.4389,0.439,0.4395,0.4401,0.4402,0.4396,0.4408,0.441,0.4423,0.443,0.4418,0.4419,0.4457,0.4458,0.4458,0.4464,0,0,0,0,0,0,0.4357,0.436,0.4365,0.4374,0.4378,0.4396,0.439,0.4391,0.4396,0.4396,0.4404,0.4405,0.4408,0.4421,0.4424,0.4431,0.4419,0.4456,0.4457,0.4458,0.4463,0.4465,0.4467,0,0,0,0,0,0.4356,0.4366,0.4366,0.4368,0.4384,0.4396,0.4398,0.4401,0.4397,0.4402,0.4407,0.4405,0.4429,0.4423,0.4425,0.4433,0.4456,0.4457,0.4458,0.4463,0.4465,0.4466,0,0,0,0,0,0,0.4357,0.4367,0.4367,0.438,0.4387,0.4396,0.4403,0.4402,0.4411,0.441,0.4412,0.4414,0.4428,0.4431,0.4425,0.4448,0.4442,0.4443,0.4445,0.4446,0.4448,0.4447,0.442,0,0,0,0,0,0.4359,0.4368,0.4376,0.4387,0.4391,0.4396,0.4402,0.4403,0.4411,0.4413,0.4419,0.4426,0.4435,0.4441,0.445,0.4464,0.4467,0.4471,0.4472,0.4474,0.4475,0.4484,0.4487,0.4462,0.4462,0.4462,0,0,0.4363,0.437,0.4375,0.4388,0.4394,0.4403,0.4399,0.4409,0.4416,0.4415,0.4428,0.4432,0.444,0.4454,0.4461,0.4458,0.4482,0.4475,0.4476,0.4477,0.4486,0.4488,0.449,0.4463,0.4463,0.4462,0,0,0.4375,0.4381,0.4391,0.4398,0.4407,0.4411,0.4413,0.4422,0.4425,0.4438,0.4438,0.4447,0.4462,0.4468,0.4474,0.449,0.4489,0.4493,0.4501,0.451,0.4512,0.4514,0.452,0.4523,0.4494,0.4494,0.4494,0,0.4379,0.4393,0.4397,0.4407,0.4413,0.4414,0.4425,0.4431,0.4442,0.4446,0.4443,0.4464,0.4469,0.4485,0.449,0.4494,0.4497,0.4492,0.4511,0.4513,0.4515,0.4521,0.4524,0.4495,0.4495,0.4495,0.4495,0,0.4398,0.4408,0.4416,0.4428,0.4435,0.4445,0.4451,0.4457,0.4459,0.4463,0.4477,0.4484,0.4494,0.4498,0.4499,0.4515,0.4513,0.4511,0.4505,0.4518,0.4524,0.4526,0.4495,0.4495,0.4495,0.4495,0,0,0.4411,0.4426,0.4428,0.4434,0.4445,0.4453,0.4465,0.4476,0.4482,0.449,0.45,0.4514,0.4512,0.4518,0.452,0.4528,0.4542,0.4524,0.4525,0.4528,0.4561,0.4563,0.4566,0.4542,0.4542,0.4542,0.456,0,0.4425,0.4445,0.4449,0.4466,0.4477,0.4478,0.4488,0.4496,0.45,0.451,0.4515,0.4525,0.4521,0.4525,0.4533,0.4538,0.4549,0.4537,0.4551,0.4551,0.4549,0.4569,0.4571,0.4588,0.4563,0.4563,0.4563,0,0.4443,0.4453,0.4472,0.4483,0.4487,0.4496,0.4508,0.4516,0.4526,0.4529,0.4536,0.4538,0.455,0.4544,0.4561,0.4553,0.456,0.4563,0.4564,0.4565,0.4558,0.4571,0.4593,0.4596,0.4567,0.4567,0.4567,0,0.4452,0.4469,0.4483,0.4488,0.4501,0.4508,0.4514,0.4523,0.453,0.454,0.4544,0.4555,0.4561,0.457,0.4575,0.457,0.4592,0.4586,0.4595,0.4595,0.46,0.4599,0.4623,0.4603,0.4603,0.4603,0.4603,0,0.4467,0.4478,0.4488,0.4496,0.451,0.4514,0.4528,0.4533,0.4542,0.4552,0.4553,0.4563,0.4568,0.4579,0.4582,0.4597,0.4599,0.4602,0.4603,0.4602,0.4602,0.4606,0.4605,0.4604,0.4603,0.4603,0.4603,0,0.4478,0.4485,0.45,0.4512,0.4515,0.4525,0.4535,0.4543,0.4549,0.4561,0.4565,0.4573,0.4585,0.4591,0.4605,0.4608,0.4625,0.4625,0.4622,0.4622,0.4631,0.4631,0.4659,0.4663,0.464,0.464,0.464,0,0.4487,0.4497,0.451,0.4517,0.4523,0.4534,0.4542,0.4548,0.4555,0.4568,0.4575,0.4588,0.4598,0.4618,0.4625,0.4637,0.4638,0.4647,0.4639,0.4639,0.4639,0.4638,0.464,0.4648,0.4648,0.4648,0.4649,0,0.4504,0.4507,0.4518,0.4531,0.454,0.455,0.4559,0.4565,0.4572,0.4581,0.4594,0.4603,0.4619,0.4631,0.4644,0.465,0.4651,0.4651,0.4654,0.4653,0.4651,0.4653,0.4626,0.465,0.465,0.465,0.465,0.465,0.4515,0.4524,0.4535,0.4547,0.4556,0.4565,0.4574,0.4581,0.4593,0.4606,0.4609,0.4623,0.4634,0.4651,0.4658,0.4669,0.4667,0.4671,0.4672,0.4673,0.4674,0.465,0.4671,0.4671,0.4671,0.4671,0.4671,0,0.4532,0.454,0.4551,0.4565,0.4576,0.4576,0.4587,0.4596,0.4609,0.4619,0.4629,0.4645,0.4658,0.4667,0.468,0.4687,0.4688,0.4691,0.469,0.4692,0.4675,0.4671,0.469,0.469,0.469,0.469,0.469,0.469,0.4542,0.4557,0.4562,0.4582,0.4589,0.4604,0.4611,0.462,0.4628,0.4646,0.4657,0.4663,0.4672,0.4687,0.4699,0.4701,0.4706,0.4709,0.4711,0.4695,0.4693,0.4691,0.4688,0.471,0.471,0.4727,0.4727,0.4727]}]]